User: anonymous   Login
Location: Nebula Knoll Observatory
(43.6666°N, 71.0000°W)
Time: 16:33:58
(UTC-04:00)
Language:

SeaSat 1 - Orbit

View from above orbital plane
View from above orbital plane
View from above satellite
View from above satellite

Ground track
Ground track

The orbit data is extracted from the following two-line orbital elements,

1 10967U 78064A   16240.52457897  .00000008  00000-0  42625-4 0  9999
2 10967 108.0080  45.8684 0001754 297.5690  62.5276 14.43573185  4229
Epoch (UTC): 27 August 2016 12:35:23
Eccentricity: 0.0001754
inclination: 108.0080°
perigee height: 745 km
apogee height: 748 km
right ascension of ascending node: 45.8684°
argument of perigee: 297.5690°
revolutions per day: 14.43573185
mean anomaly at epoch: 62.5276°
orbit number at epoch: 422

The dashed part of the orbit path shows where the satellite is in the earth's shadow,  

DLR